Simultaneous Nadir Overpasses (SNOs) Predictions

Prediction of SNOs between GOES-17 and LANDSAT-8 Satellite Orbit:

Table of predicted SNOs for the next 14.0 days since TLE Epoch: 3/18/2023
Index Date Time (GOES-17) GOES-17 Lat,Lon LANDSAT-8 Lat,Lon Distance(km) Time Diff (sec)
1 03/18/2023 05:00:53 0.01,-104.73 0.48,-102.57 245.65 80
2 03/18/2023 17:22:08 -0.01,-104.76 0.62,-107.72 336.79 80
3 03/20/2023 17:12:35 -0.00,-104.75 -0.02,-104.76 2.73 80
4 03/22/2023 17:00:21 0.00,-104.74 -0.62,-101.80 334.38 80
5 03/23/2023 05:21:45 -0.00,-104.70 -0.46,-106.99 260.35 80
6 03/25/2023 05:06:50 -0.01,-104.69 0.11,-104.02 75.72 80
7 03/27/2023 04:54:36 0.02,-104.68 0.77,-101.06 411.00 80
8 03/27/2023 17:15:51 -0.02,-104.71 0.31,-106.22 171.31 80
9 03/29/2023 17:06:16 -0.02,-104.70 -0.31,-103.25 164.67 80
10 03/30/2023 05:27:39 0.02,-104.66 -0.81,-108.44 429.65 80
